| time (UTC) | temp C | wind direction | speed KPH | gust KPH | rain 1hr cm | rain 24hr cm | rain mn cm | humidity % | barometer mb |
| 20260508033916 | 6 | 0 | 0.0 | 1.6 | 0.00 | 0.00 | 0.15 | 65 | 1013.8 |
| 20260508033321 | 6 | 0 | 0.0 | 1.6 | 0.00 | 0.00 | 0.15 | 65 | 1013.8 |
| 20260508032422 | 6 | 0 | 0.0 | 1.6 | 0.00 | 0.00 | 0.15 | 67 | 1013.8 |
| 20260508031833 | 6 | 0 | 0.0 | 1.6 | 0.00 | 0.00 | 0.15 | 67 | 1013.8 |
| 20260508031219 | 6 | 0 | 0.0 | 1.6 | 0.00 | 0.00 | 0.15 | 66 | 1013.8 |
| 20260508030621 | 6 | 0 | 0.0 | 1.6 | 0.00 | 0.00 | 0.15 | 66 | 1013.8 |
| 20260508030049 | 6 | 0 | 0.0 | 1.6 | 0.00 | 0.00 | 0.15 | 66 | 1013.8 |
| 20260508025436 | 6 | 0 | 0.0 | 3.2 | 0.00 | 0.00 | 0.15 | 67 | 1013.5 |
| 20260508024821 | 6 | 0 | 0.0 | 3.2 | 0.00 | 0.00 | 0.15 | 67 | 1013.5 |
| 20260508024231 | 6 | 0 | 0.0 | 3.2 | 0.00 | 0.00 | 0.15 | 64 | 1013.5 |
| 20260508023617 | 6 | 0 | 0.0 | 3.2 | 0.00 | 0.00 | 0.15 | 64 | 1013.5 |
| 20260508023046 | 6 | 0 | 0.0 | 3.2 | 0.00 | 0.00 | 0.15 | 64 | 1013.5 |
| 20260508022438 | 7 | 0 | 0.0 | 1.6 | 0.00 | 0.00 | 0.15 | 66 | 1013.5 |
| 20260508021816 | 7 | 0 | 0.0 | 1.6 | 0.00 | 0.00 | 0.15 | 66 | 1013.5 |
| 20260508020945 | 7 | 0 | 0.0 | 3.2 | 0.00 | 0.00 | 0.15 | 63 | 1013.2 |
| 20260508020349 | 7 | 0 | 0.0 | 3.2 | 0.00 | 0.00 | 0.15 | 63 | 1013.2 |
| 20260508015442 | 7 | 311 | 1.6 | 4.8 | 0.00 | 0.00 | 0.15 | 63 | 1013.2 |
| 20260508014848 | 7 | 311 | 1.6 | 4.8 | 0.00 | 0.00 | 0.15 | 63 | 1013.2 |
| 20260508014239 | 8 | 0 | 0.0 | 3.2 | 0.00 | 0.00 | 0.15 | 62 | 1013.2 |
| 20260508013652 | 8 | 0 | 0.0 | 3.2 | 0.00 | 0.00 | 0.15 | 62 | 1013.2 |
| 20260508013013 | 8 | 0 | 0.0 | 6.4 | 0.00 | 0.00 | 0.15 | 60 | 1012.8 |
| 20260508012448 | 8 | 0 | 0.0 | 6.4 | 0.00 | 0.00 | 0.15 | 60 | 1012.8 |
| 20260508011837 | 8 | 0 | 0.0 | 6.4 | 0.00 | 0.00 | 0.15 | 60 | 1012.8 |
| 20260508010935 | 8 | 304 | 1.6 | 4.8 | 0.00 | 0.00 | 0.15 | 58 | 1012.5 |
| 20260508010349 | 8 | 304 | 1.6 | 4.8 | 0.00 | 0.00 | 0.15 | 58 | 1012.5 |
| 20260508005736 | 8 | 0 | 0.0 | 4.8 | 0.00 | 0.00 | 0.15 | 60 | 1012.5 |
| 20260508003908 | 9 | 308 | 4.8 | 4.8 | 0.00 | 0.00 | 0.15 | 58 | 1012.1 |
| 20260508003340 | 9 | 308 | 4.8 | 4.8 | 0.00 | 0.00 | 0.15 | 58 | 1012.1 |
| 20260508002451 | 10 | 359 | 4.8 | 4.8 | 0.00 | 0.00 | 0.15 | 59 | 1012.1 |
| 20260508001824 | 10 | 359 | 4.8 | 4.8 | 0.00 | 0.00 | 0.15 | 59 | 1012.1 |
| 20260508000949 | 10 | 350 | 1.6 | 3.2 | 0.00 | 0.00 | 0.15 | 61 | 1012.1 |
| 20260508000335 | 10 | 350 | 1.6 | 3.2 | 0.00 | 0.00 | 0.15 | 61 | 1012.1 |
| 20260507234831 | 10 | 332 | 1.6 | 4.8 | 0.00 | 0.00 | 0.15 | 55 | 1011.8 |
| 20260507233611 | 11 | 320 | 3.2 | 8.0 | 0.00 | 0.00 | 0.15 | 54 | 1011.8 |
| 20260507233013 | 11 | 296 | 1.6 | 4.8 | 0.00 | 0.00 | 0.15 | 53 | 1011.8 |
| 20260507232440 | 11 | 296 | 1.6 | 4.8 | 0.00 | 0.00 | 0.15 | 53 | 1011.8 |
| 20260507231834 | 11 | 296 | 1.6 | 4.8 | 0.00 | 0.00 | 0.15 | 53 | 1011.8 |
| 20260507231209 | 11 | 318 | 1.6 | 4.8 | 0.00 | 0.00 | 0.15 | 52 | 1011.5 |
| 20260507230638 | 11 | 318 | 1.6 | 4.8 | 0.00 | 0.00 | 0.15 | 52 | 1011.5 |
| 20260507224829 | 12 | 355 | 4.8 | 12.9 | 0.00 | 0.00 | 0.15 | 56 | 1011.5 |
| 20260507223918 | 12 | 299 | 3.2 | 11.3 | 0.00 | 0.00 | 0.15 | 54 | 1011.5 |
| 20260507223338 | 12 | 299 | 3.2 | 11.3 | 0.00 | 0.00 | 0.15 | 54 | 1011.5 |
| 20260507222719 | 12 | 352 | 1.6 | 9.7 | 0.00 | 0.00 | 0.15 | 56 | 1011.1 |
| 20260507221516 | 12 | 280 | 6.4 | 9.7 | 0.00 | 0.00 | 0.15 | 51 | 1011.1 |
| 20260507220312 | 12 | 280 | 6.4 | 9.7 | 0.00 | 0.00 | 0.15 | 51 | 1011.1 |
| 20260507215448 | 12 | 300 | 4.8 | 12.9 | 0.00 | 0.00 | 0.15 | 52 | 1010.8 |
| 20260507214815 | 12 | 300 | 4.8 | 12.9 | 0.00 | 0.00 | 0.15 | 52 | 1010.8 |
| 20260507214219 | 12 | 329 | 3.2 | 12.9 | 0.00 | 0.00 | 0.15 | 53 | 1010.8 |
| 20260507213642 | 12 | 329 | 3.2 | 12.9 | 0.00 | 0.00 | 0.15 | 53 | 1010.8 |
| 20260507213045 | 12 | 329 | 3.2 | 12.9 | 0.00 | 0.00 | 0.15 | 53 | 1010.8 |
| 20260507212409 | 12 | 316 | 3.2 | 4.8 | 0.00 | 0.00 | 0.15 | 52 | 1010.4 |
| 20260507211840 | 12 | 316 | 3.2 | 4.8 | 0.00 | 0.00 | 0.15 | 52 | 1010.4 |
| 20260507211210 | 12 | 333 | 3.2 | 8.0 | 0.00 | 0.00 | 0.15 | 54 | 1010.4 |
| 20260507210631 | 12 | 333 | 3.2 | 8.0 | 0.00 | 0.00 | 0.15 | 54 | 1010.4 |
| 20260507210013 | 11 | 355 | 4.8 | 14.5 | 0.00 | 0.00 | 0.15 | 52 | 1010.4 |
| 20260507205410 | 11 | 355 | 4.8 | 14.5 | 0.00 | 0.00 | 0.15 | 52 | 1010.4 |
| 20260507204215 | 12 | 311 | 3.2 | 6.4 | 0.00 | 0.00 | 0.15 | 56 | 1010.4 |
| 20260507203650 | 12 | 311 | 3.2 | 6.4 | 0.00 | 0.00 | 0.15 | 56 | 1010.4 |
| 20260507203050 | 12 | 311 | 3.2 | 6.4 | 0.00 | 0.00 | 0.15 | 56 | 1010.4 |
| 20260507202447 | 11 | 321 | 3.2 | 8.0 | 0.00 | 0.00 | 0.15 | 55 | 1010.4 |
| 20260507201828 | 11 | 321 | 3.2 | 8.0 | 0.00 | 0.00 | 0.15 | 55 | 1010.4 |
| 20260507200938 | 12 | 356 | 1.6 | 8.0 | 0.00 | 0.00 | 0.15 | 54 | 1010.8 |
| 20260507195752 | 11 | 330 | 3.2 | 6.4 | 0.00 | 0.00 | 0.15 | 57 | 1011.1 |
| 20260507195151 | 11 | 330 | 3.2 | 6.4 | 0.00 | 0.00 | 0.15 | 57 | 1011.1 |
| 20260507194514 | 11 | 315 | 3.2 | 9.7 | 0.00 | 0.00 | 0.15 | 58 | 1011.1 |
| 20260507193951 | 11 | 315 | 3.2 | 9.7 | 0.00 | 0.00 | 0.15 | 58 | 1011.1 |
| 20260507192437 | 11 | 323 | 1.6 | 12.9 | 0.00 | 0.00 | 0.15 | 57 | 1011.1 |
| 20260507191827 | 11 | 323 | 1.6 | 12.9 | 0.00 | 0.00 | 0.15 | 57 | 1011.1 |
| 20260507190936 | 12 | 49 | 1.6 | 16.1 | 0.00 | 0.00 | 0.15 | 55 | 1010.8 |
| 20260507185724 | 11 | 4 | 3.2 | 6.4 | 0.00 | 0.00 | 0.15 | 58 | 1011.1 |
| 20260507185150 | 11 | 4 | 3.2 | 6.4 | 0.00 | 0.00 | 0.15 | 58 | 1011.1 |
| 20260507184549 | 11 | 4 | 3.2 | 6.4 | 0.00 | 0.00 | 0.15 | 58 | 1011.1 |
| 20260507183951 | 11 | 320 | 3.2 | 8.0 | 0.00 | 0.00 | 0.15 | 61 | 1011.1 |
| 20260507183308 | 11 | 320 | 3.2 | 8.0 | 0.00 | 0.00 | 0.15 | 61 | 1011.1 |
| 20260507182417 | 12 | 328 | 3.2 | 9.7 | 0.00 | 0.00 | 0.15 | 57 | 1011.1 |
| 20260507181850 | 12 | 328 | 3.2 | 9.7 | 0.00 | 0.00 | 0.15 | 57 | 1011.1 |
| 20260507181227 | 13 | 12 | 9.7 | 14.5 | 0.00 | 0.00 | 0.15 | 62 | 1011.1 |
| 20260507180617 | 13 | 12 | 9.7 | 14.5 | 0.00 | 0.00 | 0.15 | 62 | 1011.1 |
| 20260507175424 | 12 | 45 | 4.8 | 9.7 | 0.00 | 0.00 | 0.15 | 60 | 1011.5 |
| 20260507174829 | 12 | 45 | 4.8 | 9.7 | 0.00 | 0.00 | 0.15 | 60 | 1011.5 |
| 20260507173945 | 12 | 309 | 3.2 | 8.0 | 0.00 | 0.00 | 0.15 | 62 | 1011.5 |
| 20260507172732 | 12 | 2 | 4.8 | 14.5 | 0.00 | 0.00 | 0.15 | 63 | 1011.5 |
| 20260507172129 | 12 | 2 | 4.8 | 14.5 | 0.00 | 0.00 | 0.15 | 63 | 1011.5 |
| 20260507170911 | 10 | 327 | 4.8 | 12.9 | 0.00 | 0.00 | 0.15 | 65 | 1011.8 |
| 20260507170321 | 10 | 327 | 4.8 | 12.9 | 0.00 | 0.00 | 0.15 | 65 | 1011.8 |
| 20260507165432 | 11 | 334 | 3.2 | 9.7 | 0.00 | 0.00 | 0.15 | 65 | 1012.1 |
| 20260507164846 | 11 | 334 | 3.2 | 9.7 | 0.00 | 0.00 | 0.15 | 65 | 1012.1 |
| 20260507163923 | 11 | 64 | 6.4 | 9.7 | 0.00 | 0.00 | 0.15 | 69 | 1012.1 |
| 20260507162447 | 10 | 336 | 4.8 | 9.7 | 0.00 | 0.00 | 0.15 | 73 | 1012.5 |
| 20260507161847 | 10 | 336 | 4.8 | 9.7 | 0.00 | 0.00 | 0.15 | 73 | 1012.5 |
| 20260507161236 | 10 | 318 | 1.6 | 8.0 | 0.00 | 0.00 | 0.15 | 74 | 1012.5 |
| 20260507160647 | 10 | 318 | 1.6 | 8.0 | 0.00 | 0.00 | 0.15 | 74 | 1012.5 |
| 20260507160048 | 10 | 318 | 1.6 | 8.0 | 0.00 | 0.00 | 0.15 | 74 | 1012.5 |
| 20260507155436 | 9 | 319 | 4.8 | 12.9 | 0.00 | 0.00 | 0.15 | 76 | 1012.5 |
| 20260507154825 | 9 | 319 | 4.8 | 12.9 | 0.00 | 0.00 | 0.15 | 76 | 1012.5 |
| 20260507154227 | 9 | 332 | 3.2 | 4.8 | 0.00 | 0.00 | 0.15 | 78 | 1012.5 |
| 20260507153642 | 9 | 332 | 3.2 | 4.8 | 0.00 | 0.00 | 0.15 | 78 | 1012.5 |
| 20260507153047 | 9 | 332 | 3.2 | 4.8 | 0.00 | 0.00 | 0.15 | 78 | 1012.5 |
| 20260507151221 | 8 | 0 | 0.0 | 3.2 | 0.00 | 0.00 | 0.15 | 82 | 1012.5 |
| 20260507150649 | 8 | 0 | 0.0 | 3.2 | 0.00 | 0.00 | 0.15 | 82 | 1012.5 |
| 20260507150015 | 8 | 0 | 0.0 | 4.8 | 0.00 | 0.00 | 0.15 | 85 | 1012.8 |
| 20260507145432 | 8 | 0 | 0.0 | 4.8 | 0.00 | 0.00 | 0.15 | 85 | 1012.8 |
| 20260507144824 | 8 | 0 | 0.0 | 4.8 | 0.00 | 0.00 | 0.15 | 85 | 1012.8 |
| 20260507144217 | 7 | 356 | 3.2 | 3.2 | 0.00 | 0.00 | 0.15 | 87 | 1013.2 |
| 20260507143646 | 7 | 356 | 3.2 | 3.2 | 0.00 | 0.00 | 0.15 | 87 | 1013.2 |
| 20260507142415 | 7 | 331 | 1.6 | 4.8 | 0.00 | 0.00 | 0.15 | 87 | 1013.5 |
| 20260507141817 | 7 | 331 | 1.6 | 4.8 | 0.00 | 0.00 | 0.15 | 87 | 1013.5 |
| 20260507140926 | 7 | 350 | 1.6 | 3.2 | 0.00 | 0.00 | 0.15 | 91 | 1013.5 |
| 20260507140342 | 7 | 350 | 1.6 | 3.2 | 0.00 | 0.00 | 0.15 | 91 | 1013.5 |
| 20260507135418 | 7 | 0 | 0.0 | 3.2 | 0.00 | 0.00 | 0.15 | 94 | 1013.5 |
| 20260507134816 | 7 | 0 | 0.0 | 3.2 | 0.00 | 0.00 | 0.15 | 94 | 1013.5 |
| 20260507134217 | 6 | 0 | 0.0 | 6.4 | 0.00 | 0.00 | 0.15 | 94 | 1013.8 |
| 20260507133622 | 6 | 0 | 0.0 | 6.4 | 0.00 | 0.00 | 0.15 | 94 | 1013.8 |
| 20260507133045 | 6 | 0 | 0.0 | 6.4 | 0.00 | 0.00 | 0.15 | 94 | 1013.8 |
| 20260507132447 | 6 | 0 | 0.0 | 3.2 | 0.00 | 0.00 | 0.15 | 96 | 1013.8 |
| 20260507131816 | 6 | 0 | 0.0 | 3.2 | 0.00 | 0.00 | 0.15 | 96 | 1013.8 |
| 20260507130911 | 6 | 9 | 1.6 | 3.2 | 0.00 | 0.00 | 0.15 | 96 | 1013.8 |
| 20260507130311 | 6 | 9 | 1.6 | 3.2 | 0.00 | 0.00 | 0.15 | 96 | 1013.8 |
| 20260507124550 | 6 | 0 | 0.0 | 4.8 | 0.00 | 0.00 | 0.15 | 97 | 1013.8 |
| 20260507123943 | 6 | 0 | 0.0 | 4.8 | 0.00 | 0.00 | 0.15 | 97 | 1013.8 |
| 20260507123343 | 6 | 0 | 0.0 | 4.8 | 0.00 | 0.00 | 0.15 | 97 | 1013.8 |
| 20260507122425 | 6 | 350 | 1.6 | 3.2 | 0.00 | 0.00 | 0.15 | 96 | 1013.8 |
| 20260507121835 | 6 | 350 | 1.6 | 3.2 | 0.00 | 0.00 | 0.15 | 96 | 1013.8 |
| 20260507121211 | 6 | 174 | 1.6 | 3.2 | 0.00 | 0.00 | 0.15 | 97 | 1013.8 |
| 20260507120620 | 6 | 174 | 1.6 | 3.2 | 0.00 | 0.00 | 0.15 | 97 | 1013.8 |
| 20260507115423 | 5 | 0 | 0.0 | 0.0 | 0.00 | 0.00 | 0.15 | 97 | 1013.8 |
| 20260507114843 | 5 | 0 | 0.0 | 0.0 | 0.00 | 0.00 | 0.15 | 97 | 1013.8 |
| 20260507113916 | 6 | 0 | 0.0 | 0.0 | 0.00 | 0.00 | 0.15 | 97 | 1013.5 |
| 20260507113326 | 6 | 0 | 0.0 | 0.0 | 0.00 | 0.00 | 0.15 | 97 | 1013.5 |
| 20260507112752 | 5 | 0 | 0.0 | 0.0 | 0.00 | 0.00 | 0.15 | 97 | 1013.2 |
| 20260507111513 | 5 | 0 | 0.0 | 0.0 | 0.00 | 0.00 | 0.15 | 97 | 1012.8 |
| 20260507110940 | 5 | 0 | 0.0 | 0.0 | 0.00 | 0.00 | 0.15 | 97 | 1012.8 |
| 20260507110320 | 5 | 0 | 0.0 | 0.0 | 0.00 | 0.00 | 0.15 | 97 | 1012.8 |
| 20260507105717 | 5 | 0 | 0.0 | 1.6 | 0.00 | 0.00 | 0.15 | 97 | 1012.8 |
| 20260507105143 | 5 | 0 | 0.0 | 1.6 | 0.00 | 0.00 | 0.15 | 97 | 1012.8 |
| 20260507104546 | 5 | 0 | 0.0 | 1.6 | 0.00 | 0.00 | 0.15 | 97 | 1012.8 |
| 20260507103320 | 6 | 0 | 0.0 | 1.6 | 0.00 | 0.00 | 0.15 | 97 | 1012.8 |
| 20260507102412 | 6 | 0 | 0.0 | 1.6 | 0.00 | 0.00 | 0.15 | 97 | 1012.5 |
| 20260507101824 | 6 | 0 | 0.0 | 1.6 | 0.00 | 0.00 | 0.15 | 97 | 1012.5 |
| 20260507100912 | 6 | 353 | 1.6 | 1.6 | 0.00 | 0.00 | 0.15 | 97 | 1012.8 |
| 20260507100332 | 6 | 353 | 1.6 | 1.6 | 0.00 | 0.00 | 0.15 | 97 | 1012.8 |
| 20260507095740 | 6 | 0 | 0.0 | 1.6 | 0.00 | 0.00 | 0.15 | 97 | 1012.5 |
| 20260507095110 | 6 | 0 | 0.0 | 1.6 | 0.00 | 0.00 | 0.15 | 97 | 1012.5 |
| 20260507093930 | 6 | 0 | 0.0 | 3.2 | 0.00 | 0.00 | 0.13 | 97 | 1012.1 |
| 20260507093344 | 6 | 0 | 0.0 | 3.2 | 0.00 | 0.00 | 0.13 | 97 | 1012.1 |
| 20260507092744 | 6 | 0 | 0.0 | 3.2 | 0.00 | 0.00 | 0.13 | 97 | 1012.5 |
| 20260507092130 | 6 | 0 | 0.0 | 3.2 | 0.00 | 0.00 | 0.13 | 97 | 1012.5 |
| 20260507091510 | 6 | 314 | 1.6 | 4.8 | 0.00 | 0.00 | 0.13 | 96 | 1012.5 |
| 20260507090939 | 6 | 314 | 1.6 | 4.8 | 0.00 | 0.00 | 0.13 | 96 | 1012.5 |
| 20260507090318 | 6 | 314 | 1.6 | 4.8 | 0.00 | 0.00 | 0.13 | 96 | 1012.5 |
| 20260507085715 | 6 | 319 | 1.6 | 3.2 | 0.00 | 0.00 | 0.13 | 97 | 1012.1 |
| 20260507085109 | 6 | 319 | 1.6 | 3.2 | 0.00 | 0.00 | 0.13 | 97 | 1012.1 |
| 20260507084541 | 6 | 319 | 1.6 | 3.2 | 0.00 | 0.00 | 0.13 | 97 | 1012.1 |
| 20260507083925 | 6 | 0 | 0.0 | 1.6 | 0.00 | 0.00 | 0.10 | 97 | 1012.5 |
| 20260507083327 | 6 | 0 | 0.0 | 1.6 | 0.00 | 0.00 | 0.10 | 97 | 1012.5 |
| 20260507082448 | 6 | 0 | 0.0 | 1.6 | 0.00 | 0.00 | 0.08 | 97 | 1012.5 |
| 20260507081818 | 6 | 0 | 0.0 | 1.6 | 0.00 | 0.00 | 0.08 | 97 | 1012.5 |
| 20260507080917 | 6 | 0 | 0.0 | 1.6 | 0.00 | 0.00 | 0.08 | 97 | 1012.5 |
| 20260507080337 | 6 | 0 | 0.0 | 1.6 | 0.00 | 0.00 | 0.08 | 97 | 1012.5 |
| 20260507075415 | 6 | 0 | 0.0 | 1.6 | 0.00 | 0.00 | 0.05 | 97 | 1012.5 |
| 20260507074246 | 6 | 0 | 0.0 | 0.0 | 0.00 | 0.00 | 0.05 | 97 | 1012.5 |
| 20260507073046 | 6 | 0 | 0.0 | 0.0 | 0.00 | 0.00 | 0.05 | 97 | 1012.5 |
| 20260507072432 | 6 | 0 | 0.0 | 0.0 | 0.00 | 0.00 | 0.05 | 97 | 1012.5 |
| 20260507071846 | 6 | 0 | 0.0 | 0.0 | 0.00 | 0.00 | 0.05 | 97 | 1012.5 |
| 20260507070310 | 6 | 0 | 0.0 | 0.0 | 0.00 | 0.00 | 0.05 | 97 | 1012.5 |
| 20260507065753 | 6 | 0 | 0.0 | 0.0 | 0.00 | 0.00 | 0.05 | 97 | 1012.5 |
| 20260507064514 | 6 | 0 | 0.0 | 0.0 | 0.00 | 0.00 | 0.05 | 97 | 1012.5 |
| 20260507063913 | 6 | 0 | 0.0 | 0.0 | 0.00 | 0.00 | 0.05 | 97 | 1012.5 |
| 20260507063347 | 6 | 0 | 0.0 | 0.0 | 0.00 | 0.00 | 0.05 | 97 | 1012.5 |
| 20260507062448 | 6 | 0 | 0.0 | 0.0 | 0.00 | 0.00 | 0.05 | 97 | 1012.8 |
| 20260507061838 | 6 | 0 | 0.0 | 0.0 | 0.00 | 0.00 | 0.05 | 97 | 1012.8 |
| 20260507061227 | 6 | 0 | 0.0 | 0.0 | 0.00 | 0.00 | 0.05 | 96 | 1012.8 |
| 20260507060648 | 6 | 0 | 0.0 | 0.0 | 0.00 | 0.00 | 0.05 | 96 | 1012.8 |
| 20260507060052 | 6 | 0 | 0.0 | 0.0 | 0.00 | 0.00 | 0.05 | 96 | 1012.8 |
| 20260507055454 | 7 | 0 | 0.0 | 0.0 | 0.00 | 0.00 | 0.05 | 96 | 1013.2 |
| 20260507054834 | 7 | 0 | 0.0 | 0.0 | 0.00 | 0.00 | 0.05 | 96 | 1013.2 |
| 20260507053926 | 7 | 336 | 1.6 | 3.2 | 0.00 | 0.00 | 0.03 | 96 | 1013.5 |
| 20260507052445 | 7 | 346 | 1.6 | 6.4 | 0.00 | 0.00 | 0.03 | 96 | 1013.5 |
| 20260507051846 | 7 | 346 | 1.6 | 6.4 | 0.00 | 0.00 | 0.03 | 96 | 1013.5 |
| 20260507050911 | 7 | 0 | 0.0 | 3.2 | 0.00 | 0.00 | 0.03 | 96 | 1013.2 |
| 20260507050342 | 7 | 0 | 0.0 | 3.2 | 0.00 | 0.00 | 0.03 | 96 | 1013.2 |
| 20260507045431 | 7 | 319 | 1.6 | 3.2 | 0.00 | 0.00 | 0.03 | 96 | 1013.2 |
| 20260507044813 | 7 | 319 | 1.6 | 3.2 | 0.00 | 0.00 | 0.03 | 96 | 1013.2 |
| 20260507043954 | 7 | 344 | 1.6 | 3.2 | 0.00 | 0.00 | 0.03 | 96 | 1013.2 |
| 20260507042439 | 7 | 336 | 1.6 | 4.8 | 0.00 | 0.00 | 0.00 | 96 | 1012.8 |
| 20260507041839 | 7 | 336 | 1.6 | 4.8 | 0.00 | 0.00 | 0.00 | 96 | 1012.8 |
| 20260507041247 | 7 | 5 | 1.6 | 4.8 | 0.00 | 0.00 | 0.00 | 96 | 1012.8 |
| 20260507040627 | 7 | 5 | 1.6 | 4.8 | 0.00 | 0.00 | 0.00 | 96 | 1012.8 |
| 20260507035415 | 8 | 352 | 4.8 | 4.8 | 0.00 | 0.00 | 1.78 | 96 | 1012.8 |
| 20260507034838 | 8 | 352 | 4.8 | 4.8 | 0.00 | 0.00 | 1.78 | 96 | 1012.8 |